Weather History for VIDP - November, 2012

Change the Weather History Date:

Saturday, November 3, 2012

  Actual Average Record
Temperature  
Mean Temperature 71 °F -  
Max Temperature 82 °F 79 °F 95 °F (2001)
Min Temperature 60 °F 55 °F 57 °F (2013)
Cooling Degree Days 6    
Growing Degree Days 21 (Base 50)    
Moisture  
Dew Point 58 °F    
Average Humidity 69    
Maximum Humidity 94    
Minimum Humidity 37    
Precipitation  
Precipitation 0.00 in - - ()
Sea Level Pressure  
Sea Level Pressure 29.89 in    
Wind  
Wind Speed 1 mph ()    
Max Wind Speed 5 mph    
Max Gust Speed -    
Visibility 0.5 miles    
Events Fog    
Averages and records for this station are not official NWS values.
T = Trace of Precipitation, MM = Missing Value Source: Averaged Metar Reports

Daily Weather History Graph

Daily Weather History Graph

Search for Another Location

Airport or City:

Trip Planner

Search our weather history database for the weather conditions in past years. The results will help you decide how hot, cold, wet, or windy it might be!

Date:

Astronomy

Nov. 03, 2012 Rise Set
Actual Time 6:34 AM IST 5:34 PM IST
Civil Twilight 6:10 AM IST 5:59 PM IST
Nautical Twilight 5:42 AM IST 6:27 PM IST
Astronomical Twilight 5:14 AM IST 6:54 PM IST
Moon 8:58 PM IST 10:10 AM IST
Length of Visible Light 11h 48m
Length of Day
10h 59m
Waning Gibbous, 83% of the Moon is Illuminated
Nov 3
Waning Gibbous
Nov 7
Last Quarter
Nov 14
New
Nov 20
First Quarter
Nov 28
Full

Hourly Weather History & Observations

Time (IST) Temp. Heat Index Dew Point Humidity Pressure Visibility Wind Dir Wind Speed Gust Speed Precip Events Conditions
12:00 AM 64.4 °F - 62.6 °F 94% 29.89 in 0.2 mi Calm Calm - N/A Fog Fog
12:30 AM 64.4 °F - 62.6 °F 94% 29.89 in 0.2 mi Calm Calm - N/A Fog Fog
1:00 AM 64.4 °F - 60.8 °F 88% 29.89 in 0.2 mi Calm Calm - N/A Fog Fog
1:30 AM 64.4 °F - 60.8 °F 88% 29.89 in 0.2 mi Calm Calm - N/A Fog Fog
2:00 AM 64.4 °F - 60.8 °F 88% 29.86 in 0.2 mi Calm Calm - N/A Fog Fog
2:30 AM 64.4 °F - 60.8 °F 88% 29.86 in 0.2 mi Calm Calm - N/A Fog Fog
3:00 AM 64.4 °F - 59.0 °F 83% 29.86 in 0.2 mi Calm Calm - N/A Fog Fog
3:30 AM 62.6 °F - 59.0 °F 88% 29.86 in 0.2 mi Calm Calm - N/A Fog Fog
4:00 AM 62.6 °F - 59.0 °F 88% 29.86 in 0.2 mi Calm Calm - N/A Fog Fog
4:30 AM 62.6 °F - 59.0 °F 88% 29.86 in 0.2 mi Calm Calm - N/A Fog Fog
5:00 AM 62.6 °F - 59.0 °F 88% 29.86 in 0.2 mi Calm Calm - N/A Fog Fog
5:30 AM 62.6 °F - 59.0 °F 88% 29.86 in 0.2 mi Calm Calm - N/A Fog Fog
6:00 AM 62.6 °F - 59.0 °F 88% 29.89 in 0.2 mi Calm Calm - N/A Fog Fog
6:30 AM 62.6 °F - 59.0 °F 88% 29.89 in 0.2 mi Calm Calm - N/A Fog Fog
7:00 AM 60.8 °F - 59.0 °F 94% 29.89 in 0.2 mi Calm Calm - N/A Fog Fog
7:30 AM 60.8 °F - 59.0 °F 94% 29.92 in 0.2 mi Calm Calm - N/A Fog Fog
8:00 AM 62.6 °F - 57.2 °F 82% 29.95 in 0.3 mi WSW 3.5 mph - N/A Fog Fog
8:30 AM 62.6 °F - 57.2 °F 82% 29.95 in 0.3 mi WSW 3.5 mph - N/A Fog Fog
9:30 AM 66.2 °F - 57.2 °F 73% 29.95 in 0.4 mi West 3.5 mph - N/A   Smoke
10:30 AM 69.8 °F - 57.2 °F 64% 29.95 in 0.6 mi West 3.5 mph - N/A   Smoke
11:30 AM 73.4 °F - 59.0 °F 61% 29.95 in 0.6 mi WSW 2.3 mph - N/A   Smoke
12:00 PM 75.2 °F - 59.0 °F 57% 29.92 in 0.6 mi WNW 3.5 mph - N/A   Smoke
12:30 PM 77.0 °F - 59.0 °F 54% 29.92 in 0.6 mi WNW 3.5 mph - N/A   Smoke
1:00 PM 78.8 °F - 59.0 °F 51% 29.92 in 0.6 mi West 3.5 mph - N/A   Smoke
1:30 PM 80.6 °F 80.5 °F 55.4 °F 42% 29.89 in 0.9 mi NW 3.5 mph - N/A   Smoke
2:00 PM 80.6 °F 80.3 °F 53.6 °F 39% 29.86 in 0.9 mi WNW 4.6 mph - N/A   Smoke
3:00 PM 82.4 °F 81.4 °F 53.6 °F 37% 29.86 in 0.9 mi NW 4.6 mph - N/A   Smoke
3:30 PM 82.4 °F 81.4 °F 53.6 °F 37% 29.86 in 1.1 mi NW 4.6 mph - N/A   Smoke
4:00 PM 80.6 °F 80.5 °F 55.4 °F 42% 29.86 in 1.1 mi West 3.5 mph - N/A   Smoke
4:30 PM 80.6 °F 80.5 °F 55.4 °F 42% 29.86 in 1.1 mi West 3.5 mph - N/A   Smoke
5:00 PM 78.8 °F - 55.4 °F 44% 29.86 in 1.1 mi WSW 2.3 mph - N/A   Smoke
5:30 PM 77.0 °F - 55.4 °F 47% 29.86 in 1.1 mi SW 3.5 mph - N/A   Smoke
6:00 PM 75.2 °F - 55.4 °F 50% 29.86 in 1.0 mi West 3.5 mph - N/A   Smoke
7:00 PM 71.6 °F - 57.2 °F 60% 29.89 in 0.7 mi Calm Calm - N/A   Smoke
7:30 PM 71.6 °F - 57.2 °F 60% 29.89 in 0.7 mi Calm Calm - N/A   Smoke
8:00 PM 71.6 °F - 55.4 °F 57% 29.89 in 0.9 mi Calm Calm - N/A   Smoke
8:30 PM 71.6 °F - 55.4 °F 57% 29.89 in 0.9 mi Calm Calm - N/A   Smoke
9:00 PM 69.8 °F - 55.4 °F 60% 29.89 in 0.6 mi Calm Calm - N/A   Smoke
10:00 PM 69.8 °F - 57.2 °F 64% 29.92 in 0.5 mi Calm Calm - N/A   Smoke
10:30 PM 69.8 °F - 57.2 °F 64% 29.92 in 0.5 mi Calm Calm - N/A   Smoke
11:00 PM 66.2 °F - 59.0 °F 78% 29.89 in 0.4 mi Calm Calm - N/A   Mist
11:30 PM 66.2 °F - 59.0 °F 78% - 0.4 mi Calm Calm - N/A   Mist